Home   Weather   Majuro   Past weeks

Flag for Marshall Islands Past Weather in Majuro, Marshall Islands — Yesterday and Last 2 Weeks

Now
83 °F

Passing clouds.


Feels Like: 92 °F
Forecast: 80 / 85 °F
Wind: 6 mph from Northeast

Location: Majuro Atoll

Current Time: Aug 19, 2017 at 9:27:30 pm

Latest Report: Aug 19, 2017 at 8:50 pm


Visibility: 15 mi

Pressure: 29.77 "Hg

Humidity: 84%

Dew Point: 77 °F

Location of MajuroLocation

Past Weather in Majuro — Graph

°F

Majuro Temperature Yesterday

Maximum temperature yesterday: 89 °F (at 12:50 pm)
Minimum temperature yesterday: 82 °F (at 3:52 am)
Average temperature yesterday: 85 °F

High & Low Weather Summary for the Past Weeks

 TemperatureHumidityPressure
High89 °F (Aug 11, 11:52 am)94% (Aug 12, 2:33 pm)29.93 "Hg (Aug 12, 2:33 pm)
Low76 °F (Aug 5, 8:57 am)63% (Aug 18, 2:50 pm)29.72 "Hg (Aug 19, 3:53 pm)
Average83 °F79%29.82 "Hg
* Reported Aug 4 7:55 pm — Aug 19 7:58 pm, Majuro. Weather by CustomWeather, © 2017

Note: Actual official high and low records may vary slightly from our data, if they occured in-between our weather recording intervals... More about our weather records

Advertising

Majuro Weather History for the Previous 24 Hours

Scroll right to see more
 ConditionsComfort  
Time TempWeatherWind HumidityBarometerVisibility
7:58 pm
Sat, Aug 19
85 °FPassing clouds.No wind75%29.75 "Hg15 mi
6:55 pm84 °FScattered clouds.No wind77%29.74 "Hg15 mi
5:53 pm85 °FPartly sunny.7 mph74%29.73 "Hg15 mi
4:53 pm85 °FBroken clouds.No wind75%29.73 "Hg15 mi
3:53 pm84 °FBroken clouds.No wind77%29.72 "Hg15 mi
2:52 pm87 °FBroken clouds.7 mph71%29.72 "Hg15 mi
1:51 pm87 °FBroken clouds.7 mph71%29.75 "Hg15 mi
12:51 pm87 °FBroken clouds.7 mph71%29.76 "Hg15 mi
11:50 am87 °FMore clouds than sun.6 mph70%29.78 "Hg15 mi
10:52 am87 °FBroken clouds.9 mph73%29.80 "Hg15 mi
9:52 am83 °FCloudy.6 mph82%29.82 "Hg15 mi
8:52 am86 °FBroken clouds.7 mph72%29.81 "Hg15 mi
7:52 am84 °FBroken clouds.6 mph77%29.80 "Hg15 mi
6:52 am82 °FPartly cloudy.5 mph81%29.78 "Hg15 mi
5:52 am82 °FPartly cloudy.5 mph81%29.76 "Hg15 mi
4:50 am82 °FPartly cloudy.6 mph82%29.75 "Hg15 mi
3:52 am82 °FPartly cloudy.5 mph82%29.75 "Hg15 mi
2:56 am82 °FPartly cloudy.5 mph83%29.75 "Hg15 mi
12:52 am83 °FPassing clouds.6 mph81%29.78 "Hg15 mi
11:54 pm
Fri, Aug 18
83 °FPassing clouds.6 mph80%29.80 "Hg15 mi
10:50 pm83 °FPartly cloudy.7 mph78%29.80 "Hg15 mi
9:53 pm83 °FPartly cloudy.8 mph79%29.80 "Hg15 mi
Weather by CustomWeather, © 2017

See weather overviewHow to use our weather pages